Weather History for Newark, NJ

Change the Weather History Date:

Thursday, June 20, 2013

  Actual Average Record
Temperature  
Mean Temperature 70 °F 74 °F  
Max Temperature 80 °F 83 °F 98 °F (2012)
Min Temperature 59 °F 65 °F 52 °F (1956)
Degree Days  
Heating Degree Days 0 0  
Month to date heating degree days 8 15  
Since 1 June heating degree days 8 15  
Since 1 July heating degree days 4639 4870  
Cooling Degree Days 5 9  
Month to date cooling degree days 123 135  
Year to date cooling degree days 223 211  
Since 1 June cooling degree days 123 135  
Growing Degree Days 20 (Base 50)    
Moisture  
Dew Point 54 °F    
Average Humidity 60    
Maximum Humidity 78    
Minimum Humidity 42    
Precipitation  
Precipitation 0.00 in 0.12 in 0.65 in (1955)
Month to date precipitation 8.29 2.77  
Year to date precipitation 24.54 21.66  
Snow  
Snow 0.00 in 0.00 in 0.00 in (2002)
Month to date snowfall 0.0 0.0  
Since 1 July snowfall 29.5 28.5  
Snow Depth 0.00 in    
Sea Level Pressure  
Sea Level Pressure 30.24 in    
Wind  
Wind Speed 8 mph (SSW)    
Max Wind Speed 15 mph    
Max Gust Speed 21 mph    
Visibility 10 miles    
Events      
T = Trace of Precipitation, MM = Missing Value Source: NWS Daily Summary

Daily Weather History Graph

Daily Weather History Graph

Search for Another Location

Airport:

Trip Planner

Search our weather history database for the weather conditions in past years. The results will help you decide how hot, cold, wet, or windy it might be!

Date:

Astronomy

Jun. 20, 2013 Rise Set
Actual Time 5:25 AM EDT 8:31 PM EDT
Civil Twilight 4:52 AM EDT 9:04 PM EDT
Nautical Twilight 4:09 AM EDT 9:47 PM EDT
Astronomical Twilight 3:19 AM EDT 10:37 PM EDT
Moon 5:29 PM EDT (6/20) 2:50 AM EDT (6/20)
Length of Visible Light 16h 12m
Length of Day
15h 05m
Waxing Gibbous, 89% of the Moon is Illuminated
Jun 20
Waxing Gibbous
Jun 23
Full
Jun 30
Last Quarter
Jul 8
New
Jul 15
First Quarter

Hourly Weather History & Observations

Time (EDT) Temp. Dew Point Humidity Pressure Visibility Wind Dir Wind Speed Gust Speed Precip Events Conditions
12:51 AM 63.0 °F 51.1 °F 65% 30.18 in 10.0 mi SW 5.8 mph - N/A   Clear
1:51 AM 62.1 °F 52.0 °F 70% 30.19 in 10.0 mi SSW 5.8 mph - N/A   Clear
2:51 AM 63.0 °F 53.1 °F 70% 30.19 in 10.0 mi SSE 3.5 mph - N/A   Clear
3:51 AM 63.0 °F 52.0 °F 67% 30.20 in 10.0 mi SSW 3.5 mph - N/A   Scattered Clouds
4:51 AM 60.1 °F 52.0 °F 75% 30.21 in 10.0 mi SSW 3.5 mph - N/A   Partly Cloudy
5:51 AM 60.1 °F 53.1 °F 78% 30.22 in 10.0 mi SW 3.5 mph - N/A   Partly Cloudy
6:51 AM 64.0 °F 54.0 °F 70% 30.25 in 10.0 mi SW 4.6 mph - N/A   Partly Cloudy
7:51 AM 66.0 °F 54.0 °F 65% 30.26 in 10.0 mi SW 4.6 mph - N/A   Clear
8:51 AM 70.0 °F 55.9 °F 61% 30.26 in 10.0 mi West 6.9 mph - N/A   Clear
9:51 AM 73.0 °F 53.1 °F 49% 30.26 in 10.0 mi SW 9.2 mph - N/A   Clear
10:51 AM 75.0 °F 54.0 °F 48% 30.27 in 10.0 mi WSW 9.2 mph - N/A   Partly Cloudy
11:51 AM 77.0 °F 55.9 °F 48% 30.26 in 10.0 mi SW 6.9 mph - N/A   Partly Cloudy
12:51 PM 75.0 °F 55.9 °F 51% 30.25 in 10.0 mi SW 6.9 mph - N/A   Partly Cloudy
1:51 PM 78.1 °F 54.0 °F 43% 30.25 in 10.0 mi South 10.4 mph - N/A   Scattered Clouds
2:51 PM 78.1 °F 54.0 °F 43% 30.23 in 10.0 mi SSE 5.8 mph - N/A   Scattered Clouds
3:51 PM 79.0 °F 55.9 °F 45% 30.23 in 10.0 mi South 8.1 mph - N/A   Scattered Clouds
4:51 PM 78.1 °F 55.0 °F 45% 30.22 in 10.0 mi SSE 6.9 mph - N/A   Scattered Clouds
5:51 PM 77.0 °F 55.0 °F 47% 30.22 in 10.0 mi SSE 11.5 mph 17.3 mph N/A   Partly Cloudy
6:51 PM 77.0 °F 55.0 °F 47% 30.22 in 10.0 mi SSE 15.0 mph 20.7 mph N/A   Partly Cloudy
7:51 PM 75.0 °F 54.0 °F 48% 30.23 in 10.0 mi South 11.5 mph - N/A   Scattered Clouds
8:51 PM 73.0 °F 55.0 °F 53% 30.23 in 10.0 mi South 11.5 mph - N/A   Partly Cloudy
9:51 PM 71.1 °F 53.1 °F 53% 30.25 in 10.0 mi South 11.5 mph - N/A   Partly Cloudy
10:51 PM 69.1 °F 52.0 °F 54% 30.26 in 10.0 mi SSW 10.4 mph - N/A   Partly Cloudy
11:51 PM 66.9 °F 48.9 °F 52% 30.27 in 10.0 mi SSW 9.2 mph - N/A   Clear